Warrensburg, MO

6:23 AM CST on November 18, 2017 (GMT -0600)
Skyhaven

Weather History for KRCM - December, 2012

Change the Weather History Date:

Thursday, December 20, 2012

  Actual Average (KSZL) Record (KSZL)
Temperature  
Mean Temperature 32 °F -  
Max Temperature 42 °F 37 °F 57 °F (2015)
Min Temperature 23 °F 20 °F 3 °F (1996)
Degree Days  
Heating Degree Days 32    
Moisture  
Dew Point 24 °F    
Average Humidity 81    
Maximum Humidity 100    
Minimum Humidity 68    
Precipitation  
Precipitation 0.02 in - - ()
Sea Level Pressure  
Sea Level Pressure 29.81 in    
Wind  
Wind Speed 15 mph (WNW)    
Max Wind Speed 28 mph    
Max Gust Speed 41 mph    
Visibility 7 miles    
Events Fog , Rain , Snow , Thunderstorm    
Averages and records for this station are not official NWS values.
T = Trace of Precipitation, MM = Missing Value Source: NWS Daily Summary

Daily Weather History Graph

Daily Weather History Graph

Search for Another Location

Airport or City:

Trip Planner

Search our weather history database for the weather conditions in past years. The results will help you decide how hot, cold, wet, or windy it might be!

Date:

Astronomy

Dec. 20, 2012 Rise Set
Actual Time 7:29 AM CST 4:56 PM CST
Civil Twilight 6:59 AM CST 5:26 PM CST
Nautical Twilight 6:26 AM CST 6:00 PM CST
Astronomical Twilight 5:53 AM CST 6:32 PM CST
Moon 12:12 PM CST (12/20) 12:20 AM CST (12/20)
Length of Visible Light 10h 26m
Length of Day
9h 27m
First Quarter, 55% of the Moon is Illuminated
Dec 20
First Quarter
Dec 28
Full
Jan 4
Last Quarter
Jan 11
New
Jan 18
First Quarter

Hourly Weather History & Observations

Time (CST) Temp. Windchill Dew Point Humidity Pressure Visibility Wind Dir Wind Speed Gust Speed Precip Events Conditions
12:15 AM 42.8 °F 37.5 °F 41.0 °F 93% 29.36 in 0.8 mi North 9.2 mph - 0.01 in   Overcast
12:35 AM 41.0 °F 35.2 °F 39.2 °F 93% 29.35 in 0.5 mi North 9.2 mph - 0.01 in Fog Fog
12:55 AM 41.0 °F 34.7 °F 37.4 °F 87% 29.35 in 0.8 mi NW 10.4 mph - 0.01 in   Overcast
1:35 AM 37.4 °F 28.9 °F 35.6 °F 93% 29.34 in 1.5 mi NW 13.8 mph 20.7 mph N/A   Overcast
1:55 AM 37.4 °F 28.9 °F 35.6 °F 93% 29.34 in 4.0 mi NNW 13.8 mph 18.4 mph N/A   Overcast
2:15 AM 37.4 °F 29.3 °F 35.6 °F 93% 29.34 in 7.0 mi NNW 12.7 mph - N/A Rain Light Rain
2:35 AM 37.4 °F 29.3 °F 35.6 °F 93% 29.32 in 7.0 mi NNW 12.7 mph 18.4 mph N/A Thunderstorm Overcast
2:55 AM 37.4 °F 29.3 °F 35.6 °F 93% 29.32 in 5.0 mi NNW 12.7 mph 19.6 mph N/A   Overcast
3:15 AM 37.4 °F 30.3 °F 35.6 °F 93% 29.33 in 5.0 mi NW 10.4 mph - N/A   Overcast
3:35 AM 35.6 °F 25.5 °F 35.6 °F 100% 29.33 in 4.0 mi NW 17.3 mph 24.2 mph 0.01 in   Overcast
3:55 AM 35.6 °F 27.1 °F 33.8 °F 93% 29.36 in 4.0 mi West 12.7 mph 21.9 mph 0.01 in   Drizzle
4:15 AM 35.6 °F 26.6 °F 33.8 °F 93% 29.36 in 5.0 mi West 13.8 mph 20.7 mph N/A Rain Light Rain
4:35 AM 32.0 °F 21.6 °F 32.0 °F 100% 29.38 in 5.0 mi West 15.0 mph - N/A Snow Light Snow
4:55 AM 32.0 °F 23.0 °F 32.0 °F 100% 29.39 in 1.8 mi West 11.5 mph 17.3 mph N/A Snow Light Snow
5:15 AM 32.0 °F 22.5 °F 32.0 °F 100% 29.40 in 2.0 mi West 12.7 mph - N/A Snow Light Snow
5:35 AM 32.0 °F 20.8 °F 32.0 °F 100% 29.43 in 3.0 mi West 17.3 mph 23.0 mph N/A Snow Light Snow
5:55 AM 32.0 °F 20.5 °F 32.0 °F 100% 29.45 in 3.0 mi West 18.4 mph 31.1 mph N/A Snow Light Snow
6:15 AM 32.0 °F 18.9 °F 30.2 °F 93% 29.48 in 2.0 mi WNW 24.2 mph 35.7 mph N/A Snow Light Snow
6:35 AM 32.0 °F 19.5 °F 30.2 °F 93% 29.50 in 1.2 mi WNW 21.9 mph 33.4 mph N/A Snow Light Snow
6:55 AM 32.0 °F 18.1 °F 30.2 °F 93% 29.53 in 1.2 mi WNW 27.6 mph 35.7 mph N/A Snow Light Snow
7:15 AM 30.2 °F 16.2 °F 28.4 °F 93% 29.56 in 1.2 mi West 25.3 mph 34.5 mph N/A Snow Light Snow
7:55 AM 30.2 °F 16.2 °F 28.4 °F 93% 29.62 in 0.8 mi WNW 25.3 mph 33.4 mph N/A Snow Light Snow
8:15 AM 28.4 °F 13.5 °F 26.6 °F 93% 29.65 in 0.8 mi WNW 26.5 mph 33.4 mph N/A Snow Light Snow
8:35 AM 28.4 °F 14.1 °F 26.6 °F 93% 29.67 in 0.8 mi WNW 24.2 mph 36.8 mph N/A Snow Light Snow
8:55 AM 28.4 °F 14.1 °F 26.6 °F 93% 29.69 in 0.5 mi WNW 24.2 mph 36.8 mph N/A Snow Light Snow
9:15 AM 28.4 °F 13.3 °F 26.6 °F 93% 29.72 in 0.5 mi WNW 27.6 mph 41.4 mph N/A Snow Light Snow
9:35 AM 28.4 °F 14.4 °F 26.6 °F 93% 29.75 in 0.8 mi WNW 23.0 mph 36.8 mph N/A Snow Light Snow
9:55 AM 28.4 °F 14.1 °F 24.8 °F 86% 29.78 in 1.2 mi WNW 24.2 mph 35.7 mph N/A Snow Light Snow
10:15 AM 28.4 °F 15.4 °F 24.8 °F 86% 29.80 in 1.8 mi WNW 19.6 mph 31.1 mph N/A Snow Light Snow
10:35 AM 28.4 °F 14.4 °F 23.0 °F 80% 29.82 in 5.0 mi West 23.0 mph 32.2 mph N/A   Overcast
10:55 AM 28.4 °F 13.3 °F 23.0 °F 80% 29.84 in 10.0 mi West 27.6 mph 34.5 mph N/A   Overcast
11:15 AM 28.4 °F 15.1 °F 23.0 °F 80% 29.85 in 10.0 mi WNW 20.7 mph 35.7 mph N/A   Overcast
11:35 AM 28.4 °F 15.8 °F 21.2 °F 74% 29.86 in 10.0 mi West 18.4 mph 29.9 mph N/A   Overcast
11:55 AM 28.4 °F 14.4 °F 21.2 °F 74% 29.88 in 10.0 mi West 23.0 mph 32.2 mph N/A   Overcast
12:15 PM 28.4 °F 15.8 °F 21.2 °F 74% 29.89 in 10.0 mi West 18.4 mph 33.4 mph N/A   Overcast
12:35 PM 26.6 °F 12.7 °F 21.2 °F 80% 29.90 in 10.0 mi West 20.7 mph 29.9 mph N/A   Mostly Cloudy
12:55 PM 26.6 °F 12.4 °F 19.4 °F 74% 29.91 in 10.0 mi West 21.9 mph 33.4 mph N/A   Scattered Clouds
1:15 PM 26.6 °F 12.7 °F 19.4 °F 74% 29.92 in 10.0 mi West 20.7 mph 31.1 mph N/A   Scattered Clouds
1:35 PM 26.6 °F 12.0 °F 19.4 °F 74% 29.94 in 10.0 mi West 23.0 mph 29.9 mph N/A   Clear
1:55 PM 26.6 °F 12.4 °F 19.4 °F 74% 29.95 in 10.0 mi West 21.9 mph 27.6 mph N/A   Scattered Clouds
2:15 PM 28.4 °F 15.8 °F 19.4 °F 69% 29.96 in 10.0 mi West 18.4 mph 25.3 mph N/A   Scattered Clouds
2:35 PM 28.4 °F 15.4 °F 19.4 °F 69% 29.98 in 10.0 mi West 19.6 mph 28.8 mph N/A   Scattered Clouds
2:55 PM 28.4 °F 16.2 °F 19.4 °F 69% 30.00 in 10.0 mi West 17.3 mph 27.6 mph N/A   Scattered Clouds
3:15 PM 28.4 °F 16.6 °F 19.4 °F 69% 30.01 in 10.0 mi West 16.1 mph 27.6 mph N/A   Scattered Clouds
3:55 PM 28.4 °F 15.8 °F 19.4 °F 69% 30.03 in 10.0 mi West 18.4 mph 24.2 mph N/A   Clear
4:15 PM 28.4 °F 15.4 °F 19.4 °F 69% 30.05 in 10.0 mi West 19.6 mph 25.3 mph N/A   Clear
4:35 PM 28.4 °F 15.4 °F 19.4 °F 69% 30.06 in 10.0 mi West 19.6 mph 28.8 mph N/A   Clear
4:55 PM 28.4 °F 16.6 °F 19.4 °F 69% 30.07 in 10.0 mi West 16.1 mph 23.0 mph N/A   Clear
5:15 PM 26.6 °F 15.7 °F 19.4 °F 74% 30.08 in 10.0 mi West 12.7 mph 20.7 mph N/A   Clear
5:35 PM 26.6 °F 14.7 °F 19.4 °F 74% 30.09 in 10.0 mi West 15.0 mph - N/A   Clear
5:55 PM 26.6 °F 14.7 °F 19.4 °F 74% 30.10 in 10.0 mi West 15.0 mph 20.7 mph N/A   Clear
6:15 PM 26.6 °F 15.2 °F 19.4 °F 74% 30.11 in 10.0 mi West 13.8 mph 20.7 mph N/A   Clear
6:35 PM 26.6 °F 16.2 °F 17.6 °F 69% 30.12 in 10.0 mi West 11.5 mph - N/A   Clear
6:55 PM 26.6 °F 16.2 °F 17.6 °F 69% 30.12 in 10.0 mi West 11.5 mph 19.6 mph N/A   Clear
7:15 PM 26.6 °F 15.2 °F 17.6 °F 69% 30.13 in 10.0 mi West 13.8 mph - N/A   Clear
7:35 PM 26.6 °F 15.2 °F 17.6 °F 69% 30.13 in 10.0 mi West 13.8 mph 20.7 mph N/A   Clear
7:55 PM 26.6 °F 15.7 °F 17.6 °F 69% 30.13 in 10.0 mi West 12.7 mph - N/A   Clear
8:15 PM 26.6 °F 14.3 °F 17.6 °F 69% 30.15 in 10.0 mi West 16.1 mph 20.7 mph N/A   Clear
8:35 PM 26.6 °F 16.2 °F 17.6 °F 69% 30.15 in 10.0 mi West 11.5 mph 18.4 mph N/A   Clear
8:55 PM 26.6 °F 16.2 °F 17.6 °F 69% 30.16 in 10.0 mi West 11.5 mph 16.1 mph N/A   Clear
9:15 PM 26.6 °F 16.8 °F 17.6 °F 69% 30.16 in 10.0 mi West 10.4 mph - N/A   Clear
9:35 PM 26.6 °F 16.8 °F 17.6 °F 69% 30.17 in 10.0 mi West 10.4 mph - N/A   Clear
9:55 PM 24.8 °F 15.3 °F 15.8 °F 69% 30.17 in 10.0 mi West 9.2 mph - N/A   Clear
10:15 PM 24.8 °F 14.0 °F 15.8 °F 69% 30.18 in 10.0 mi West 11.5 mph - N/A   Clear
10:35 PM 23.0 °F 12.4 °F 15.8 °F 74% 30.19 in 10.0 mi West 10.4 mph - N/A   Clear
10:55 PM 23.0 °F 13.1 °F 15.8 °F 74% 30.20 in 10.0 mi West 9.2 mph - N/A   Clear
11:15 PM 23.0 °F 12.4 °F 14.0 °F 68% 30.20 in 10.0 mi West 10.4 mph - N/A   Clear
11:35 PM 23.0 °F 11.7 °F 14.0 °F 68% 30.21 in 10.0 mi West 11.5 mph 16.1 mph N/A   Clear
11:55 PM 23.0 °F 12.4 °F 14.0 °F 68% 30.21 in 10.0 mi West 10.4 mph - N/A   Clear